Year,Month,Day,Hour,Minute,Value (Times are PST for temperature in C)
2015,06,08,00,00,18.10
2015,06,08,00,01,18.00
2015,06,08,00,02,17.90
2015,06,08,00,03,17.90
2015,06,08,00,04,17.90
2015,06,08,00,05,17.90
2015,06,08,00,06,17.90
2015,06,08,00,07,17.80
2015,06,08,00,08,17.80
2015,06,08,00,09,17.80
2015,06,08,00,10,17.70
2015,06,08,00,11,17.70
2015,06,08,00,12,17.70
2015,06,08,00,13,17.70
2015,06,08,00,14,17.60
2015,06,08,00,15,17.60
2015,06,08,00,16,17.60
2015,06,08,00,17,17.60
2015,06,08,00,18,17.50
2015,06,08,00,19,17.50
2015,06,08,00,20,17.50
2015,06,08,00,21,17.40
2015,06,08,00,22,17.40
2015,06,08,00,23,17.40
2015,06,08,00,24,17.40
2015,06,08,00,25,17.30
2015,06,08,00,26,17.30
2015,06,08,00,27,17.30
2015,06,08,00,28,17.30
2015,06,08,00,29,17.30
2015,06,08,00,30,17.30
2015,06,08,00,31,17.30
2015,06,08,00,32,17.30
2015,06,08,00,33,17.30
2015,06,08,00,34,17.30
2015,06,08,00,35,17.30
2015,06,08,00,36,17.30
2015,06,08,00,37,17.30
2015,06,08,00,38,17.30
2015,06,08,00,39,17.30
2015,06,08,00,40,17.30
2015,06,08,00,41,17.30
2015,06,08,00,42,17.30
2015,06,08,00,43,17.30
2015,06,08,00,44,17.30
2015,06,08,00,45,17.30
2015,06,08,00,46,17.30
2015,06,08,00,47,17.30
2015,06,08,00,48,17.20
2015,06,08,00,49,17.20
2015,06,08,00,50,17.20
2015,06,08,00,51,17.20
2015,06,08,00,52,17.10
2015,06,08,00,53,17.10
2015,06,08,00,54,17.10
2015,06,08,00,55,17.10
2015,06,08,00,56,17.00
2015,06,08,00,57,17.00
2015,06,08,00,58,17.00
2015,06,08,00,59,17.00
2015,06,08,01,00,17.00
2015,06,08,01,01,17.00
2015,06,08,01,02,16.90
2015,06,08,01,03,16.90
2015,06,08,01,04,16.90
2015,06,08,01,05,16.90
2015,06,08,01,06,16.90
2015,06,08,01,07,16.90
2015,06,08,01,08,16.90
2015,06,08,01,09,16.90
2015,06,08,01,10,16.90
2015,06,08,01,11,16.90
2015,06,08,01,12,16.90
2015,06,08,01,13,16.90
2015,06,08,01,14,16.90
2015,06,08,01,15,17.00
2015,06,08,01,16,17.00
2015,06,08,01,17,17.00
2015,06,08,01,18,17.00
2015,06,08,01,19,17.10
2015,06,08,01,20,17.10
2015,06,08,01,21,17.10
2015,06,08,01,22,17.20
2015,06,08,01,23,17.20
2015,06,08,01,24,17.20
2015,06,08,01,25,17.20
2015,06,08,01,26,17.30
2015,06,08,01,27,17.30
2015,06,08,01,28,17.30
2015,06,08,01,29,17.30
2015,06,08,01,30,17.30
2015,06,08,01,31,17.30
2015,06,08,01,32,17.30
2015,06,08,01,33,17.30
2015,06,08,01,34,17.30
2015,06,08,01,35,17.30
2015,06,08,01,36,17.30
2015,06,08,01,37,17.30
2015,06,08,01,38,17.30
2015,06,08,01,39,17.30
2015,06,08,01,40,17.30
2015,06,08,01,41,17.30
2015,06,08,01,42,17.30
2015,06,08,01,43,17.30
2015,06,08,01,44,17.30
2015,06,08,01,45,17.30
2015,06,08,01,46,17.30
2015,06,08,01,47,17.30
2015,06,08,01,48,17.30
2015,06,08,01,49,17.30
2015,06,08,01,50,17.30
2015,06,08,01,51,17.30
2015,06,08,01,52,17.30
2015,06,08,01,53,17.30
2015,06,08,01,54,17.30
2015,06,08,01,55,17.30
2015,06,08,01,56,17.20
2015,06,08,01,57,17.20
2015,06,08,01,58,17.20
2015,06,08,01,59,17.20
2015,06,08,02,00,17.20
2015,06,08,02,01,17.20
2015,06,08,02,02,17.20
2015,06,08,02,03,17.20
2015,06,08,02,04,17.20
2015,06,08,02,05,17.30
2015,06,08,02,06,17.30
2015,06,08,02,07,17.30
2015,06,08,02,08,17.30
2015,06,08,02,09,17.30
2015,06,08,02,10,17.30
2015,06,08,02,11,17.30
2015,06,08,02,12,17.30
2015,06,08,02,13,17.30
2015,06,08,02,14,17.30
2015,06,08,02,15,17.30
2015,06,08,02,16,17.30
2015,06,08,02,17,17.30
2015,06,08,02,18,17.30
2015,06,08,02,19,17.30
2015,06,08,02,20,17.30
2015,06,08,02,21,17.30
2015,06,08,02,22,17.20
2015,06,08,02,23,17.20
2015,06,08,02,24,17.20
2015,06,08,02,25,17.20
2015,06,08,02,26,17.20
2015,06,08,02,27,17.10
2015,06,08,02,28,17.10
2015,06,08,02,29,17.10
2015,06,08,02,30,17.10
2015,06,08,02,31,17.10
2015,06,08,02,32,17.10
2015,06,08,02,33,17.10
2015,06,08,02,34,17.10
2015,06,08,02,35,17.10
2015,06,08,02,36,17.10
2015,06,08,02,37,17.10
2015,06,08,02,38,17.10
2015,06,08,02,39,17.10
2015,06,08,02,40,17.10
2015,06,08,02,41,17.10
2015,06,08,02,42,17.10
2015,06,08,02,43,17.00
2015,06,08,02,44,17.00
2015,06,08,02,45,17.00
2015,06,08,02,46,17.00
2015,06,08,02,47,17.00
2015,06,08,02,48,17.00
2015,06,08,02,49,17.00
2015,06,08,02,50,16.90
2015,06,08,02,51,16.90
2015,06,08,02,52,16.90
2015,06,08,02,53,16.90
2015,06,08,02,54,16.90
2015,06,08,02,55,16.90
2015,06,08,02,56,16.90
2015,06,08,02,57,16.90
2015,06,08,02,58,16.90
2015,06,08,02,59,16.90
2015,06,08,03,00,16.90
2015,06,08,03,01,16.90
2015,06,08,03,02,16.90
2015,06,08,03,03,16.90
2015,06,08,03,04,16.80
2015,06,08,03,05,16.80
2015,06,08,03,06,16.80
2015,06,08,03,07,16.80
2015,06,08,03,08,16.80
2015,06,08,03,09,16.80
2015,06,08,03,10,16.80
2015,06,08,03,11,16.80
2015,06,08,03,12,16.80
2015,06,08,03,13,16.80
2015,06,08,03,14,16.80
2015,06,08,03,15,16.80
2015,06,08,03,16,16.80
2015,06,08,03,17,16.80
2015,06,08,03,18,16.70
2015,06,08,03,19,16.70
2015,06,08,03,20,16.70
2015,06,08,03,21,16.70
2015,06,08,03,22,16.70
2015,06,08,03,23,16.70
2015,06,08,03,24,16.70
2015,06,08,03,25,16.70
2015,06,08,03,26,16.60
2015,06,08,03,27,16.60
2015,06,08,03,28,16.60
2015,06,08,03,29,16.60
2015,06,08,03,30,16.60
2015,06,08,03,31,16.50
2015,06,08,03,32,16.40
2015,06,08,03,33,16.40
2015,06,08,03,34,16.40
2015,06,08,03,35,16.40
2015,06,08,03,36,16.40
2015,06,08,03,37,16.40
2015,06,08,03,38,16.30
2015,06,08,03,39,16.30
2015,06,08,03,40,16.30
2015,06,08,03,41,16.20
2015,06,08,03,42,16.20
2015,06,08,03,43,16.10
2015,06,08,03,44,16.10
2015,06,08,03,45,16.10
2015,06,08,03,46,16.10
2015,06,08,03,47,16.10
2015,06,08,03,48,16.10
2015,06,08,03,49,16.10
2015,06,08,03,50,16.10
2015,06,08,03,51,16.10
2015,06,08,03,52,16.10
2015,06,08,03,53,16.10
2015,06,08,03,54,16.10
2015,06,08,03,55,16.00
2015,06,08,03,56,15.90
2015,06,08,03,57,15.90
2015,06,08,03,58,15.90
2015,06,08,03,59,15.90
2015,06,08,04,00,15.90
2015,06,08,04,01,15.80
2015,06,08,04,02,15.80
2015,06,08,04,03,15.80
2015,06,08,04,04,15.80
2015,06,08,04,05,15.80
2015,06,08,04,06,15.80
2015,06,08,04,07,15.80
2015,06,08,04,08,15.80
2015,06,08,04,09,15.80
2015,06,08,04,10,15.80
2015,06,08,04,11,15.80
2015,06,08,04,12,15.80
2015,06,08,04,13,15.80
2015,06,08,04,14,15.80
2015,06,08,04,15,15.80
2015,06,08,04,16,15.80
2015,06,08,04,17,15.80
2015,06,08,04,18,15.80
2015,06,08,04,19,15.80
2015,06,08,04,20,15.80
2015,06,08,04,21,15.90
2015,06,08,04,22,15.90
2015,06,08,04,23,15.90
2015,06,08,04,24,15.90
2015,06,08,04,25,15.90
2015,06,08,04,26,15.90
2015,06,08,04,27,15.90
2015,06,08,04,28,15.90
2015,06,08,04,29,15.90
2015,06,08,04,30,15.90
2015,06,08,04,31,15.90
2015,06,08,04,32,15.90
2015,06,08,04,33,15.90
2015,06,08,04,34,15.90
2015,06,08,04,35,15.90
2015,06,08,04,36,15.80
2015,06,08,04,37,15.80
2015,06,08,04,38,15.80
2015,06,08,04,39,15.80
2015,06,08,04,40,15.80
2015,06,08,04,41,15.80
2015,06,08,04,42,15.70
2015,06,08,04,43,15.70
2015,06,08,04,44,15.70
2015,06,08,04,45,15.60
2015,06,08,04,46,15.60
2015,06,08,04,47,15.60
2015,06,08,04,48,15.60
2015,06,08,04,49,15.60
2015,06,08,04,50,15.50
2015,06,08,04,51,15.50
2015,06,08,04,52,15.50
2015,06,08,04,53,15.50
2015,06,08,04,54,15.40
2015,06,08,04,55,15.40
2015,06,08,04,56,15.40
2015,06,08,04,57,15.40
2015,06,08,04,58,15.30
2015,06,08,04,59,15.30
2015,06,08,05,00,15.30
2015,06,08,05,01,15.30
2015,06,08,05,02,15.30
2015,06,08,05,03,15.30
2015,06,08,05,04,15.30
2015,06,08,05,05,15.40
2015,06,08,05,06,15.40
2015,06,08,05,07,15.40
2015,06,08,05,08,15.40
2015,06,08,05,09,15.40
2015,06,08,05,10,15.40
2015,06,08,05,11,15.40
2015,06,08,05,12,15.40
2015,06,08,05,13,15.40
2015,06,08,05,14,15.40
2015,06,08,05,15,15.50
2015,06,08,05,16,15.50
2015,06,08,05,17,15.50
2015,06,08,05,18,15.50
2015,06,08,05,19,15.50
2015,06,08,05,20,15.50
2015,06,08,05,21,15.40
2015,06,08,05,22,15.40
2015,06,08,05,23,15.40
2015,06,08,05,24,15.40
2015,06,08,05,25,15.40
2015,06,08,05,26,15.40
2015,06,08,05,27,15.40
2015,06,08,05,28,15.40
2015,06,08,05,29,15.40
2015,06,08,05,30,15.40
2015,06,08,05,31,15.30
2015,06,08,05,32,15.30
2015,06,08,05,33,15.30
2015,06,08,05,34,15.30
2015,06,08,05,35,15.30
2015,06,08,05,36,15.30
2015,06,08,05,37,15.30
2015,06,08,05,38,15.30
2015,06,08,05,39,15.30
2015,06,08,05,40,15.30
2015,06,08,05,41,15.30
2015,06,08,05,42,15.30
2015,06,08,05,43,15.30
2015,06,08,05,44,15.30
2015,06,08,05,45,15.30
2015,06,08,05,46,15.30
2015,06,08,05,47,15.30
2015,06,08,05,48,15.30
2015,06,08,05,49,15.30
2015,06,08,05,50,15.30
2015,06,08,05,51,15.40
2015,06,08,05,52,15.40
2015,06,08,05,53,15.40
2015,06,08,05,54,15.40
2015,06,08,05,55,15.50
2015,06,08,05,56,15.50
2015,06,08,05,57,15.50
2015,06,08,05,58,15.50
2015,06,08,05,59,15.50
2015,06,08,06,00,15.50
2015,06,08,06,01,15.60
2015,06,08,06,02,15.60
2015,06,08,06,03,15.60
2015,06,08,06,04,15.60
2015,06,08,06,05,15.60
2015,06,08,06,06,15.60
2015,06,08,06,07,15.60
2015,06,08,06,08,15.60
2015,06,08,06,09,15.60
2015,06,08,06,10,15.60
2015,06,08,06,11,15.60
2015,06,08,06,12,15.60
2015,06,08,06,13,15.60
2015,06,08,06,14,15.60
2015,06,08,06,15,15.50
2015,06,08,06,16,15.50
2015,06,08,06,17,15.50
2015,06,08,06,18,15.50
2015,06,08,06,19,15.50
2015,06,08,06,20,15.60
2015,06,08,06,21,15.60
2015,06,08,06,22,15.60
2015,06,08,06,23,15.60
2015,06,08,06,24,15.70
2015,06,08,06,25,15.70
2015,06,08,06,26,15.80
2015,06,08,06,27,15.80
2015,06,08,06,28,15.80
2015,06,08,06,29,15.90
2015,06,08,06,30,15.90
2015,06,08,06,31,16.00
2015,06,08,06,32,16.10
2015,06,08,06,33,16.10
2015,06,08,06,34,16.20
2015,06,08,06,35,16.30
2015,06,08,06,36,16.30
2015,06,08,06,37,16.40
2015,06,08,06,38,16.40
2015,06,08,06,39,16.50
2015,06,08,06,40,16.60
2015,06,08,06,41,16.70
2015,06,08,06,42,16.80
2015,06,08,06,43,16.90
2015,06,08,06,44,17.00
2015,06,08,06,45,17.10
2015,06,08,06,46,17.20
2015,06,08,06,47,17.30
2015,06,08,06,48,17.40
2015,06,08,06,49,17.50
2015,06,08,06,50,17.60
2015,06,08,06,51,17.70
2015,06,08,06,52,17.80
2015,06,08,06,53,17.80
2015,06,08,06,54,17.90
2015,06,08,06,55,18.00
2015,06,08,06,56,18.10
2015,06,08,06,57,18.20
2015,06,08,06,58,18.30
2015,06,08,06,59,18.40
2015,06,08,07,00,18.40
2015,06,08,07,01,18.40
2015,06,08,07,02,18.40
2015,06,08,07,03,18.40
2015,06,08,07,04,18.30
2015,06,08,07,05,18.30
2015,06,08,07,06,18.20
2015,06,08,07,07,18.20
2015,06,08,07,08,18.20
2015,06,08,07,09,18.20
2015,06,08,07,10,18.30
2015,06,08,07,11,18.30
2015,06,08,07,12,18.30
2015,06,08,07,13,18.30
2015,06,08,07,14,18.30
2015,06,08,07,15,18.30
2015,06,08,07,16,18.30
2015,06,08,07,17,18.30
2015,06,08,07,18,18.30
2015,06,08,07,19,18.30
2015,06,08,07,20,18.30
2015,06,08,07,21,18.30
2015,06,08,07,22,18.30
2015,06,08,07,23,18.30
2015,06,08,07,24,18.30
2015,06,08,07,25,18.30
2015,06,08,07,26,18.40
2015,06,08,07,27,18.40
2015,06,08,07,28,18.40
2015,06,08,07,29,18.50
2015,06,08,07,30,18.50
2015,06,08,07,31,18.60
2015,06,08,07,32,18.70
2015,06,08,07,33,18.80
2015,06,08,07,34,18.80
2015,06,08,07,35,18.90
2015,06,08,07,36,18.90
2015,06,08,07,37,18.90
2015,06,08,07,38,19.00
2015,06,08,07,39,19.10
2015,06,08,07,40,19.10
2015,06,08,07,41,19.10
2015,06,08,07,42,19.20
2015,06,08,07,43,19.30
2015,06,08,07,44,19.30
2015,06,08,07,45,19.40
2015,06,08,07,46,19.40
2015,06,08,07,47,19.50
2015,06,08,07,48,19.50
2015,06,08,07,49,19.50
2015,06,08,07,50,19.50
2015,06,08,07,51,19.50
2015,06,08,07,52,19.50
2015,06,08,07,53,19.50
2015,06,08,07,54,19.50
2015,06,08,07,55,19.60
2015,06,08,07,56,19.60
2015,06,08,07,57,19.60
2015,06,08,07,58,19.70
2015,06,08,07,59,19.70
2015,06,08,08,00,19.70
2015,06,08,08,01,19.70
2015,06,08,08,02,19.70
2015,06,08,08,03,19.70
2015,06,08,08,04,19.70
2015,06,08,08,05,19.70
2015,06,08,08,06,19.70
2015,06,08,08,07,19.70
2015,06,08,08,08,19.80
2015,06,08,08,09,19.90
2015,06,08,08,10,19.90
2015,06,08,08,11,19.90
2015,06,08,08,12,19.90
2015,06,08,08,13,19.90
2015,06,08,08,14,19.90
2015,06,08,08,15,19.80
2015,06,08,08,16,19.80
2015,06,08,08,17,19.90
2015,06,08,08,18,19.80
2015,06,08,08,19,19.70
2015,06,08,08,20,19.60
2015,06,08,08,21,19.60
2015,06,08,08,22,19.50
2015,06,08,08,23,19.50
2015,06,08,08,24,19.60
2015,06,08,08,25,19.70
2015,06,08,08,26,19.70
2015,06,08,08,27,19.80
2015,06,08,08,28,19.90
2015,06,08,08,29,20.00
2015,06,08,08,30,20.10
2015,06,08,08,31,20.20
2015,06,08,08,32,20.30
2015,06,08,08,33,20.20
2015,06,08,08,34,20.20
2015,06,08,08,35,20.20
2015,06,08,08,36,20.20
2015,06,08,08,37,20.20
2015,06,08,08,38,20.20
2015,06,08,08,39,20.20
2015,06,08,08,40,20.20
2015,06,08,08,41,20.30
2015,06,08,08,42,20.30
2015,06,08,08,43,20.30
2015,06,08,08,44,20.20
2015,06,08,08,45,20.20
2015,06,08,08,46,20.20
2015,06,08,08,47,20.10
2015,06,08,08,48,20.10
2015,06,08,08,49,20.10
2015,06,08,08,50,20.10
2015,06,08,08,51,20.10
2015,06,08,08,52,20.10
2015,06,08,08,53,20.20
2015,06,08,08,54,20.20
2015,06,08,08,55,20.30
2015,06,08,08,56,20.40
2015,06,08,08,57,20.40
2015,06,08,08,58,20.50
2015,06,08,08,59,20.50
2015,06,08,09,00,20.60
2015,06,08,09,01,20.60
2015,06,08,09,02,20.70
2015,06,08,09,03,20.80
2015,06,08,09,04,20.80
2015,06,08,09,05,20.80
2015,06,08,09,06,20.90
2015,06,08,09,07,21.00
2015,06,08,09,08,20.90
2015,06,08,09,09,20.90
2015,06,08,09,10,20.90
2015,06,08,09,11,20.90
2015,06,08,09,12,21.00
2015,06,08,09,13,21.10
2015,06,08,09,14,21.10
2015,06,08,09,15,21.10
2015,06,08,09,16,21.00
2015,06,08,09,17,21.00
2015,06,08,09,18,21.00
2015,06,08,09,19,21.00
2015,06,08,09,20,21.00
2015,06,08,09,21,21.00
2015,06,08,09,22,20.90
2015,06,08,09,23,20.90
2015,06,08,09,24,20.80
2015,06,08,09,25,20.70
2015,06,08,09,26,20.60
2015,06,08,09,27,20.50
2015,06,08,09,28,20.50
2015,06,08,09,29,20.50
2015,06,08,09,30,20.60
2015,06,08,09,31,20.60
2015,06,08,09,32,20.60
2015,06,08,09,33,20.60
2015,06,08,09,34,20.60
2015,06,08,09,35,20.50
2015,06,08,09,36,20.60
2015,06,08,09,37,20.60
2015,06,08,09,38,20.70
2015,06,08,09,39,20.70
2015,06,08,09,40,20.80
2015,06,08,09,41,20.80
2015,06,08,09,42,20.90
2015,06,08,09,43,20.90
2015,06,08,09,44,20.80
2015,06,08,09,45,20.70
2015,06,08,09,46,20.50
2015,06,08,09,47,20.30
2015,06,08,09,48,20.20
2015,06,08,09,49,20.10
2015,06,08,09,50,20.00
2015,06,08,09,51,19.90
2015,06,08,09,52,19.90
2015,06,08,09,53,19.90
2015,06,08,09,54,19.90
2015,06,08,09,55,19.90
2015,06,08,09,56,19.80
2015,06,08,09,57,19.80
2015,06,08,09,58,19.80
2015,06,08,09,59,19.80
2015,06,08,10,00,19.90
2015,06,08,10,01,19.90
2015,06,08,10,02,20.00
2015,06,08,10,03,20.10
2015,06,08,10,04,20.10
2015,06,08,10,05,20.10
2015,06,08,10,06,20.20
2015,06,08,10,07,20.20
2015,06,08,10,08,20.10
2015,06,08,10,09,20.10
2015,06,08,10,10,20.10
2015,06,08,10,11,20.00
2015,06,08,10,12,20.10
2015,06,08,10,13,20.10
2015,06,08,10,14,20.20
2015,06,08,10,15,20.20
2015,06,08,10,16,20.30
2015,06,08,10,17,20.30
2015,06,08,10,18,20.40
2015,06,08,10,19,20.50
2015,06,08,10,20,20.60
2015,06,08,10,21,20.70
2015,06,08,10,22,20.80
2015,06,08,10,23,20.90
2015,06,08,10,24,21.00
2015,06,08,10,25,21.00
2015,06,08,10,26,21.00
2015,06,08,10,27,20.90
2015,06,08,10,28,20.70
2015,06,08,10,29,20.60
2015,06,08,10,30,20.50
2015,06,08,10,31,20.60
2015,06,08,10,32,20.50
2015,06,08,10,33,20.50
2015,06,08,10,34,20.50
2015,06,08,10,35,20.40
2015,06,08,10,36,20.50
2015,06,08,10,37,20.50
2015,06,08,10,38,20.60
2015,06,08,10,39,20.70
2015,06,08,10,40,20.70
2015,06,08,10,41,20.60
2015,06,08,10,42,20.60
2015,06,08,10,43,20.60
2015,06,08,10,44,20.60
2015,06,08,10,45,20.70
2015,06,08,10,46,20.70
2015,06,08,10,47,20.70
2015,06,08,10,48,20.80
2015,06,08,10,49,20.90
2015,06,08,10,50,21.00
2015,06,08,10,51,21.00
2015,06,08,10,52,21.00
2015,06,08,10,53,21.00
2015,06,08,10,54,21.00
2015,06,08,10,55,21.10
2015,06,08,10,56,21.20
2015,06,08,10,57,21.30
2015,06,08,10,58,21.30
2015,06,08,10,59,21.30
2015,06,08,11,00,21.30
2015,06,08,11,01,21.20
2015,06,08,11,02,21.20
2015,06,08,11,03,21.20
2015,06,08,11,04,21.20
2015,06,08,11,05,21.20
2015,06,08,11,06,21.30
2015,06,08,11,07,21.20
2015,06,08,11,08,21.10
2015,06,08,11,09,21.10
2015,06,08,11,10,21.00
2015,06,08,11,11,20.90
2015,06,08,11,12,20.90
2015,06,08,11,13,20.90
2015,06,08,11,14,20.90
2015,06,08,11,15,20.90
2015,06,08,11,16,20.90
2015,06,08,11,17,20.90
2015,06,08,11,18,20.90
2015,06,08,11,19,20.90
2015,06,08,11,20,20.90
2015,06,08,11,21,21.00
2015,06,08,11,22,21.10
2015,06,08,11,23,21.30
2015,06,08,11,24,21.40
2015,06,08,11,25,21.40
2015,06,08,11,26,21.40
2015,06,08,11,27,21.40
2015,06,08,11,28,21.20
2015,06,08,11,29,21.20
2015,06,08,11,30,21.20
2015,06,08,11,31,21.30
2015,06,08,11,32,21.30
2015,06,08,11,33,21.40
2015,06,08,11,34,21.50
2015,06,08,11,35,21.60
2015,06,08,11,36,21.80
2015,06,08,11,37,21.90
2015,06,08,11,38,22.00
2015,06,08,11,39,22.10
2015,06,08,11,40,22.20
2015,06,08,11,41,22.20
2015,06,08,11,42,22.20
2015,06,08,11,43,22.20
2015,06,08,11,44,22.20
2015,06,08,11,45,22.30
2015,06,08,11,46,22.40
2015,06,08,11,47,22.30
2015,06,08,11,48,22.30
2015,06,08,11,49,22.30
2015,06,08,11,50,22.20
2015,06,08,11,51,22.20
2015,06,08,11,52,22.30
2015,06,08,11,53,22.30
2015,06,08,11,54,22.40
2015,06,08,11,55,22.40
2015,06,08,11,56,22.50
2015,06,08,11,57,22.60
2015,06,08,11,58,22.50
2015,06,08,11,59,22.60
2015,06,08,12,00,22.60
2015,06,08,12,01,22.50
2015,06,08,12,02,22.40
2015,06,08,12,03,22.30
2015,06,08,12,04,22.20
2015,06,08,12,05,22.10
2015,06,08,12,06,22.00
2015,06,08,12,07,21.80
2015,06,08,12,08,21.60
2015,06,08,12,09,21.60
2015,06,08,12,10,21.70
2015,06,08,12,11,21.80
2015,06,08,12,12,21.80
2015,06,08,12,13,21.70
2015,06,08,12,14,21.60
2015,06,08,12,15,21.60
2015,06,08,12,16,21.70
2015,06,08,12,17,21.80
2015,06,08,12,18,21.90
2015,06,08,12,19,22.10
2015,06,08,12,20,22.30
2015,06,08,12,21,22.30
2015,06,08,12,22,22.10
2015,06,08,12,23,21.90
2015,06,08,12,24,21.70
2015,06,08,12,25,21.60
2015,06,08,12,26,21.60
2015,06,08,12,27,21.70
2015,06,08,12,28,21.90
2015,06,08,12,29,22.00
2015,06,08,12,30,22.10
2015,06,08,12,31,22.10
2015,06,08,12,32,22.10
2015,06,08,12,33,22.10
2015,06,08,12,34,22.20
2015,06,08,12,35,22.40
2015,06,08,12,36,22.40
2015,06,08,12,37,22.50
2015,06,08,12,38,22.70
2015,06,08,12,39,22.80
2015,06,08,12,40,22.80
2015,06,08,12,41,22.80
2015,06,08,12,42,22.90
2015,06,08,12,43,22.90
2015,06,08,12,44,22.90
2015,06,08,12,45,22.90
2015,06,08,12,46,22.90
2015,06,08,12,47,23.00
2015,06,08,12,48,23.10
2015,06,08,12,49,23.10
2015,06,08,12,50,23.10
2015,06,08,12,51,23.10
2015,06,08,12,52,23.20
2015,06,08,12,53,23.30
2015,06,08,12,54,23.30
2015,06,08,12,55,23.20
2015,06,08,12,56,23.10
2015,06,08,12,57,23.10
2015,06,08,12,58,23.00
2015,06,08,12,59,22.90
2015,06,08,13,00,22.90
2015,06,08,13,01,22.90
2015,06,08,13,02,23.10
2015,06,08,13,03,23.10
2015,06,08,13,04,23.20
2015,06,08,13,05,23.30
2015,06,08,13,06,23.50
2015,06,08,13,07,23.60
2015,06,08,13,08,23.70
2015,06,08,13,09,23.70
2015,06,08,13,10,23.70
2015,06,08,13,11,23.70
2015,06,08,13,12,23.70
2015,06,08,13,13,23.70
2015,06,08,13,14,23.60
2015,06,08,13,15,23.50
2015,06,08,13,16,23.40
2015,06,08,13,17,23.40
2015,06,08,13,18,23.30
2015,06,08,13,19,23.30
2015,06,08,13,20,23.30
2015,06,08,13,21,23.30
2015,06,08,13,22,23.30
2015,06,08,13,23,23.30
2015,06,08,13,24,23.20
2015,06,08,13,25,23.20
2015,06,08,13,26,23.30
2015,06,08,13,27,23.30
2015,06,08,13,28,23.40
2015,06,08,13,29,23.50
2015,06,08,13,30,23.60
2015,06,08,13,31,23.70
2015,06,08,13,32,23.80
2015,06,08,13,33,23.90
2015,06,08,13,34,23.90
2015,06,08,13,35,24.00
2015,06,08,13,36,24.10
2015,06,08,13,37,24.10
2015,06,08,13,38,24.10
2015,06,08,13,39,24.00
2015,06,08,13,40,23.90
2015,06,08,13,41,23.80
2015,06,08,13,42,23.80
2015,06,08,13,43,23.80
2015,06,08,13,44,23.80
2015,06,08,13,45,23.70
2015,06,08,13,46,23.70
2015,06,08,13,47,23.70
2015,06,08,13,48,23.70
2015,06,08,13,49,23.70
2015,06,08,13,50,23.70
2015,06,08,13,51,23.70
2015,06,08,13,52,23.80
2015,06,08,13,53,23.80
2015,06,08,13,54,23.90
2015,06,08,13,55,24.00
2015,06,08,13,56,24.10
2015,06,08,13,57,24.10
2015,06,08,13,58,24.20
2015,06,08,13,59,24.30
2015,06,08,14,00,24.20
2015,06,08,14,01,24.20
2015,06,08,14,02,24.20
2015,06,08,14,03,24.10
2015,06,08,14,04,23.90
2015,06,08,14,05,23.80
2015,06,08,14,06,23.70
2015,06,08,14,07,23.70
2015,06,08,14,08,23.80
2015,06,08,14,09,23.90
2015,06,08,14,10,23.80
2015,06,08,14,11,23.70
2015,06,08,14,12,23.70
2015,06,08,14,13,23.60
2015,06,08,14,14,23.70
2015,06,08,14,15,23.70
2015,06,08,14,16,23.60
2015,06,08,14,17,23.50
2015,06,08,14,18,23.40
2015,06,08,14,19,23.30
2015,06,08,14,20,23.40
2015,06,08,14,21,23.40
2015,06,08,14,22,23.30
2015,06,08,14,23,23.30
2015,06,08,14,24,23.30
2015,06,08,14,25,23.30
2015,06,08,14,26,23.50
2015,06,08,14,27,23.50
2015,06,08,14,28,23.40
2015,06,08,14,29,23.30
2015,06,08,14,30,23.30
2015,06,08,14,31,23.40
2015,06,08,14,32,23.30
2015,06,08,14,33,23.30
2015,06,08,14,34,23.30
2015,06,08,14,35,23.30
2015,06,08,14,36,23.30
2015,06,08,14,37,23.40
2015,06,08,14,38,23.60
2015,06,08,14,39,23.60
2015,06,08,14,40,23.50
2015,06,08,14,41,23.40
2015,06,08,14,42,23.40
2015,06,08,14,43,23.40
2015,06,08,14,44,23.40
2015,06,08,14,45,23.40
2015,06,08,14,46,23.30
2015,06,08,14,47,23.30
2015,06,08,14,48,23.20
2015,06,08,14,49,23.30
2015,06,08,14,50,23.30
2015,06,08,14,51,23.40
2015,06,08,14,52,23.40
2015,06,08,14,53,23.40
2015,06,08,14,54,23.30
2015,06,08,14,55,23.40
2015,06,08,14,56,23.60
2015,06,08,14,57,23.60
2015,06,08,14,58,23.50
2015,06,08,14,59,23.40
2015,06,08,15,00,23.40
2015,06,08,15,01,23.40
2015,06,08,15,02,23.40
2015,06,08,15,03,23.40
2015,06,08,15,04,23.50
2015,06,08,15,05,23.40
2015,06,08,15,06,23.40
2015,06,08,15,07,23.40
2015,06,08,15,08,23.40
2015,06,08,15,09,23.50
2015,06,08,15,10,23.60
2015,06,08,15,11,23.60
2015,06,08,15,12,23.60
2015,06,08,15,13,23.70
2015,06,08,15,14,23.90
2015,06,08,15,15,24.00
2015,06,08,15,16,24.10
2015,06,08,15,17,24.20
2015,06,08,15,18,24.10
2015,06,08,15,19,24.00
2015,06,08,15,20,23.80
2015,06,08,15,21,23.90
2015,06,08,15,22,23.90
2015,06,08,15,23,23.90
2015,06,08,15,24,24.00
2015,06,08,15,25,24.10
2015,06,08,15,26,24.20
2015,06,08,15,27,24.40
2015,06,08,15,28,24.50
2015,06,08,15,29,24.60
2015,06,08,15,30,24.60
2015,06,08,15,31,24.40
2015,06,08,15,32,24.50
2015,06,08,15,33,24.60
2015,06,08,15,34,24.60
2015,06,08,15,35,24.70
2015,06,08,15,36,24.70
2015,06,08,15,37,24.60
2015,06,08,15,38,24.60
2015,06,08,15,39,24.70
2015,06,08,15,40,24.60
2015,06,08,15,41,24.60
2015,06,08,15,42,24.70
2015,06,08,15,43,24.60
2015,06,08,15,44,24.60
2015,06,08,15,45,24.60
2015,06,08,15,46,24.60
2015,06,08,15,47,24.60
2015,06,08,15,48,24.60
2015,06,08,15,49,24.60
2015,06,08,15,50,24.70
2015,06,08,15,51,24.80
2015,06,08,15,52,24.80
2015,06,08,15,53,24.90
2015,06,08,15,54,24.90
2015,06,08,15,55,24.90
2015,06,08,15,56,25.00
2015,06,08,15,57,25.10
2015,06,08,15,58,25.10
2015,06,08,15,59,25.10
2015,06,08,16,00,25.00
2015,06,08,16,01,24.90
2015,06,08,16,02,24.90
2015,06,08,16,03,25.00
2015,06,08,16,04,25.00
2015,06,08,16,05,25.10
2015,06,08,16,06,25.10
2015,06,08,16,07,25.10
2015,06,08,16,08,25.10
2015,06,08,16,09,25.20
2015,06,08,16,10,25.30
2015,06,08,16,11,25.20
2015,06,08,16,12,25.20
2015,06,08,16,13,25.20
2015,06,08,16,14,25.10
2015,06,08,16,15,25.00
2015,06,08,16,16,25.00
2015,06,08,16,17,24.90
2015,06,08,16,18,24.90
2015,06,08,16,19,24.80
2015,06,08,16,20,24.80
2015,06,08,16,21,24.80
2015,06,08,16,22,24.90
2015,06,08,16,23,24.90
2015,06,08,16,24,25.00
2015,06,08,16,25,24.90
2015,06,08,16,26,24.90
2015,06,08,16,27,24.90
2015,06,08,16,28,25.00
2015,06,08,16,29,25.10
2015,06,08,16,30,25.10
2015,06,08,16,31,25.10
2015,06,08,16,32,25.10
2015,06,08,16,33,25.20
2015,06,08,16,34,25.20
2015,06,08,16,35,25.30
2015,06,08,16,36,25.40
2015,06,08,16,37,25.50
2015,06,08,16,38,25.50
2015,06,08,16,39,25.60
2015,06,08,16,40,25.50
2015,06,08,16,41,25.50
2015,06,08,16,42,25.50
2015,06,08,16,43,25.60
2015,06,08,16,44,25.60
2015,06,08,16,45,25.70
2015,06,08,16,46,25.80
2015,06,08,16,47,25.80
2015,06,08,16,48,25.80
2015,06,08,16,49,25.80
2015,06,08,16,50,25.70
2015,06,08,16,51,25.70
2015,06,08,16,52,25.80
2015,06,08,16,53,25.90
2015,06,08,16,54,25.90
2015,06,08,16,55,26.00
2015,06,08,16,56,26.00
2015,06,08,16,57,25.80
2015,06,08,16,58,25.70
2015,06,08,16,59,25.50
2015,06,08,17,00,25.50
2015,06,08,17,01,25.50
2015,06,08,17,02,25.60
2015,06,08,17,03,25.60
2015,06,08,17,04,25.70
2015,06,08,17,05,25.90
2015,06,08,17,06,25.90
2015,06,08,17,07,25.80
2015,06,08,17,08,25.60
2015,06,08,17,09,25.40
2015,06,08,17,10,25.50
2015,06,08,17,11,25.50
2015,06,08,17,12,25.60
2015,06,08,17,13,25.60
2015,06,08,17,14,25.50
2015,06,08,17,15,25.40
2015,06,08,17,16,25.30
2015,06,08,17,17,25.20
2015,06,08,17,18,25.20
2015,06,08,17,19,25.20